Weather History for Karlovy Vary, Czech Republic

Change the Weather History Date:

Sunday, October 21, 2012

  Actual Average (EDQM) Record (EDQM)
Temperature  
Mean Temperature 48 °F -  
Max Temperature 62 °F 49 °F 69 °F (2012)
Min Temperature 35 °F 38 °F 24 °F (2011)
Degree Days  
Heating Degree Days 16    
Moisture  
Dew Point 43 °F    
Average Humidity 88    
Maximum Humidity 100    
Minimum Humidity 59    
Precipitation  
Precipitation 0.00 in - - ()
Sea Level Pressure  
Sea Level Pressure 30.11 in    
Wind  
Wind Speed 4 mph ()    
Max Wind Speed 10 mph    
Max Gust Speed -    
Visibility 2.2 miles    
Events Fog    
Averages and records for this station are not official NWS values.
T = Trace of Precipitation, MM = Missing Value Source: Averaged Metar Reports

Daily Weather History Graph

Daily Weather History Graph

Search for Another Location

Airport:

Trip Planner

Search our weather history database for the weather conditions in past years. The results will help you decide how hot, cold, wet, or windy it might be!

Date:

Astronomy

Oct. 21, 2012 Rise Set
Actual Time 7:40 AM CEST 6:04 PM CEST
Civil Twilight 7:07 AM CEST 6:37 PM CEST
Nautical Twilight 6:29 AM CEST 7:15 PM CEST
Astronomical Twilight 5:52 AM CEST 7:52 PM CEST
Moon 2:03 PM CEST (10/21) 11:27 PM CEST (10/21)
Length of Visible Light 11h 29m
Length of Day
10h 23m
Waxing Crescent, 42% of the Moon is Illuminated
Oct 21
Waxing Crescent
Oct 22
First Quarter
Oct 29
Full
Nov 7
Last Quarter
Nov 13
New

Hourly Weather History & Observations

Time (CEST) Temp. Windchill Dew Point Humidity Pressure Visibility Wind Dir Wind Speed Gust Speed Precip Events Conditions
12:00 AM 42.8 °F 41.1 °F 42.8 °F 100% 30.12 in 0.6 mi East 3.5 mph - N/A Fog Fog
1:00 AM 42.8 °F - 41.0 °F 93% 30.09 in 0.4 mi Variable 2.3 mph - N/A Fog Fog
2:00 AM 42.8 °F - 42.8 °F 100% 30.09 in 3.7 mi East 2.3 mph - N/A Fog Shallow Fog
3:00 AM 42.8 °F - 42.8 °F 100% 30.09 in 0.2 mi Calm Calm - N/A Fog Fog
4:00 AM 37.4 °F - 37.4 °F 100% 30.09 in 0.2 mi Variable 2.3 mph - N/A Fog Fog
5:00 AM 37.4 °F 34.9 °F 37.4 °F 100% 30.09 in 0.6 mi East 3.5 mph - N/A Fog Fog
5:05 AM 37.4 °F 34.9 °F 37.4 °F 100% 30.09 in 3.1 mi East 3.5 mph - N/A Fog Partly Cloudy
6:00 AM 37.4 °F - 35.6 °F 93% 30.06 in 6.2 mi Variable 2.3 mph - N/A Fog Shallow Fog
7:00 AM 37.4 °F 32.1 °F 35.6 °F 93% 30.09 in 6.2 mi East 6.9 mph - N/A Fog Shallow Fog
8:00 AM 35.6 °F 30.7 °F 35.6 °F 100% 30.09 in 6.2 mi East 5.8 mph - N/A Fog Shallow Fog
8:30 AM 35.6 °F 31.7 °F 35.6 °F 100% 30.09 in 6.2 mi East 4.6 mph - N/A Fog Shallow Fog
9:00 AM 39.2 °F - 39.2 °F 100% 30.12 in - Variable 2.3 mph - N/A   Clear
9:30 AM 42.8 °F 40.1 °F 41.0 °F 93% 30.12 in - East 4.6 mph - N/A   Clear
10:00 AM 44.6 °F 43.1 °F 42.8 °F 93% 30.12 in - ESE 3.5 mph - N/A   Clear
10:30 AM 48.2 °F - 44.6 °F 87% 30.12 in - Variable 2.3 mph - N/A   Clear
11:00 AM 51.8 °F - 46.4 °F 82% 30.12 in - East 4.6 mph - N/A   Clear
11:30 AM 53.6 °F - 46.4 °F 77% 30.12 in - Variable 2.3 mph - N/A   Clear
12:00 PM 55.4 °F - 46.4 °F 72% 30.12 in - Variable 4.6 mph - N/A   Clear
12:30 PM 57.2 °F - 46.4 °F 67% 30.12 in - Variable 4.6 mph - N/A   Clear
1:00 PM 57.2 °F - 48.2 °F 72% 30.12 in - Variable 2.3 mph - N/A   Clear
1:30 PM 59.0 °F - 50.0 °F 72% 30.09 in - East 4.6 mph - N/A   Clear
2:00 PM 57.2 °F - 48.2 °F 72% 30.09 in - East 4.6 mph - N/A   Clear
2:30 PM 59.0 °F - 50.0 °F 72% 30.09 in - Variable 3.5 mph - N/A   Clear
3:00 PM 60.8 °F - 50.0 °F 68% 30.09 in - SE 4.6 mph - N/A   Clear
3:30 PM 62.6 °F - 48.2 °F 59% 30.09 in - ESE 6.9 mph - N/A   Clear
4:00 PM 60.8 °F - 46.4 °F 59% 30.09 in - ESE 5.8 mph - N/A   Clear
4:30 PM 59.0 °F - 46.4 °F 63% 30.09 in - ESE 4.6 mph - N/A   Clear
5:00 PM 55.4 °F - 46.4 °F 72% 30.09 in - ESE 5.8 mph - N/A   Clear
5:30 PM 51.8 °F - 46.4 °F 82% 30.09 in - ESE 4.6 mph - N/A   Clear
6:00 PM 46.4 °F 42.9 °F 44.6 °F 93% 30.12 in 6.2 mi ESE 6.9 mph - N/A Fog Patches of Fog
6:06 PM 46.4 °F 42.4 °F 44.6 °F 93% 30.12 in 6.2 mi ESE 8.1 mph - N/A Fog Patches of Fog
6:14 PM 44.6 °F 40.2 °F 44.6 °F 100% 30.12 in 3.1 mi ESE 8.1 mph - N/A Fog Mostly Cloudy
6:21 PM 44.6 °F 39.7 °F 42.8 °F 93% 30.12 in 0.7 mi ESE 9.2 mph - N/A Fog Mostly Cloudy
6:24 PM 44.6 °F 39.2 °F 42.8 °F 93% 30.12 in 0.7 mi ESE 10.4 mph - N/A Fog Mostly Cloudy
6:30 PM 44.6 °F 39.7 °F 42.8 °F 93% 30.12 in 0.7 mi ESE 9.2 mph - N/A Fog Mostly Cloudy
7:00 PM 42.8 °F 39.3 °F 42.8 °F 100% 30.12 in 0.5 mi ESE 5.8 mph - N/A Fog Fog
7:30 PM 42.8 °F 40.1 °F 42.8 °F 100% 30.12 in 0.4 mi ESE 4.6 mph - N/A Fog Fog
8:00 PM 42.8 °F 39.3 °F 42.8 °F 100% 30.12 in 0.2 mi ESE 5.8 mph - N/A Fog Fog
8:30 PM 42.8 °F 38.6 °F 42.8 °F 100% 30.12 in 0.2 mi ESE 6.9 mph - N/A Fog Fog
9:00 PM 42.8 °F 39.3 °F 42.8 °F 100% 30.12 in 0.3 mi ESE 5.8 mph - N/A Fog Fog
10:00 PM 42.8 °F 39.3 °F 42.8 °F 100% 30.15 in 0.3 mi ESE 5.8 mph - N/A Fog Fog
11:00 PM 41.0 °F 39.0 °F 41.0 °F 100% 30.15 in 0.1 mi ENE 3.5 mph - N/A Fog Fog